RH
23 14 10 9 9 11 12 12 10 8 8 8 9 22 62 51 45 44 38 32 28 24 22 18 15 13 12 6 6 7 34 90 97 99 85 87 97 96 92 85 83 70 56
57 54 32 18 9 8 10 12 13 13 13 11 16 16 48 64 54 48 48 41 33 27 24 19 16 14 18 16 9 7 8 36 61 98 98 92 97 94 97 96 96 94 81
64 47 47 38 21 13 10 11 11 13 15 15 20 24 27 43 64 62 56 51 42 33 26 22 24 25 26 25 12 8 9 10 32 82 89 96 94 99 88 96 96 97 95
64 68 83 67 45 20 16 9 11 13 15 15 16 27 28 28 51 73 66 58 51 43 35 32 35 36 37 36 32 11 10 10 9 23 26 83 99 99 84 89 98 96 96
72 78 89 98 40 27 21 13 9 12 15 16 17 23 25 24 41 67 70 66 60 52 46 45 43 40 36 38 37 26 16 12 13 17 14 20 61 85 99 97 97 96 96
100 100 98 100 99 35 20 20 13 11 14 15 16 19 20 21 33 47 65 72 68 65 65 62 53 44 39 41 33 21 19 14 13 25 46 52 62 57 99 98 94 97 93
100 100 100 100 100 91 44 25 12 10 12 13 14 15 15 22 32 44 64 69 66 62 58 55 55 52 49 42 31 19 40 34 30 43 42 82 52 58 99 100 97 95 93
100 100 100 100 100 72 14 9 12 11 12 12 13 13 17 29 47 59 50 42 51 54 53 50 42 33 22 21 47 60 54 71 78 85 90 96 49 98 96 96 96 96 95
94 96 98 97 100 72 19 13 12 11 10 12 15 19 28 37 35 28 26 41 44 41 34 25 74 83 88 89 95 94 100 98 98 93 96 96 94 93 91 97 97 96 96
95 95 97 98 99 100 77 30 16 14 14 15 15 17 19 20 24 42 29 28 23 28 50 91 96 96 100 86 92 82 64 76 90 94 93 93 92 93 97 98 97 97 98
87 100 100 100 98 94 92 69 56 92 88 63 58 89 92 95 98 100 90 91 58 73 88 57 53 60 71 30 26 28 19 12 14 17 12 15 20 22 28 38 52 72 90
98 100 99 100 97 98 100 91 100 96 91 86 95 100 99 90 75 67 50 44 50 53 62 22 9 9 8 8 7 6 6 5 5 6 6 6 6 6 6 5 5 5 9
30 40 77 89 92 56 64 56 62 92 99 95 50 48 50 45 41 32 15 7 6 6 7 7 8 8 8 7 7 9 9 8 7 8 7 6 6 5 5 5 6 5 4
31 12 22 25 12 20 9 10 24 29 36 32 28 34 13 7 7 7 8 9 9 9 10 10 10 10 10 10 10 11 11 12 10 9 8 6 6 5 4 4 4 4 4
5 6 6 5 7 11 14 14 8 10 11 13 10 10 11 10 10 11 11 11 12 12 12 11 11 10 10 11 11 13 12 12 11 10 8 6 5 4 3 3 3 3 3
7 6 5 5 6 7 7 10 12 15 17 18 19 20 20 20 20 20 19 16 13 12 12 12 12 12 13 13 14 13 13 14 13 10 7 5 4 3 3 2 2 2 2
4 5 5 5 5 7 8 12 16 17 17 18 19 20 22 22 23 23 20 16 15 11 11 12 12 14 16 16 16 15 14 13 10 9 6 5 4 3 2 2 2 2 4
4 4 4 5 5 7 8 10 14 14 16 13 14 16 20 20 22 23 22 17 14 14 14 14 14 17 17 16 18 18 16 12 10 8 6 4 3 2 2 2 2 2 3
7 7 9 9 9 10 10 9 10 10 11 11 13 16 19 22 24 24 24 18 15 14 15 17 19 20 22 25 24 21 17 13 11 8 4 3 2 2 2 3 3 3 3
15 17 20 24 25 23 21 18 13 11 11 13 15 19 22 24 24 24 21 17 17 19 24 24 27 32 36 35 28 23 18 15 11 6 4 3 2 6 12 13 11 4 3
26 26 26 27 26 25 25 24 23 21 18 16 16 19 23 25 25 26 28 27 27 26 28 33 37 38 38 37 31 24 20 17 10 6 4 3 6 15 16 20 22 23 4
28 28 27 27 28 28 28 27 26 25 25 25 22 21 22 25 28 32 32 30 34 40 39 40 44 44 48 40 34 28 24 17 9 6 4 4 14 18 25 24 24 30 15
69 71 70 65 53 40 34 35 35 29 27 27 28 30 30 33 36 36 37 41 45 47 47 50 56 62 58 46 38 32 25 16 9 5 4 10 19 20 25 36 39 27 29
62 70 72 76 79 76 78 74 50 41 41 40 41 43 44 44 46 48 51 54 58 62 66 70 76 72 61 45 37 34 24 15 7 4 8 17 23 25 33 48 50 45 42
40 48 54 65 84 83 73 68 68 78 89 76 59 49 48 50 53 55 58 68 79 82 74 69 67 66 58 44 36 34 22 12 4 4 14 23 33 37 54 49 50 71 52
58 63 67 73 77 80 84 86 93 92 88 86 84 90 94 95 93 95 96 92 84 78 66 60 58 64 54 44 39 34 20 9 4 7 21 30 35 47 52 42 39 76 56
Wind_Speed
55 62 69 77 79 80 80 77 73 70 68 64 63 63 62 62 62 60 58 57 55 56 54 52 50 47 46 41 45 43 49 43 50 52 56 49 53 49 45 49 52 50 49
52 55 59 65 73 79 81 81 76 72 69 64 59 61 58 60 62 59 57 55 56 55 56 53 50 48 48 48 46 48 49 53 53 54 61 58 56 57 60 57 55 55 56
42 45 48 53 62 67 72 81 80 74 69 64 60 57 57 55 55 58 57 55 55 54 54 53 51 51 51 50 51 51 52 53 55 55 55 59 55 57 56 52 56 63 58
33 32 28 40 52 58 63 67 76 75 66 62 58 54 50 50 53 55 56 56 57 55 55 54 55 55 54 53 56 56 57 57 56 58 59 61 60 57 60 60 52 58 63
12 17 23 25 29 43 52 59 66 69 60 55 54 51 49 49 50 50 54 55 55 56 54 55 56 56 54 57 58 59 58 61 60 59 62 65 70 73 63 63 57 68 68
25 22 21 15 10 14 35 48 57 57 57 48 48 50 49 47 45 47 51 54 55 55 56 57 58 57 57 58 56 57 61 62 64 66 65 66 68 63 65 67 68 69 64
23 28 21 14 8 2 11 27 43 44 45 43 40 40 41 41 40 42 42 43 46 50 52 55 57 57 55 54 55 53 54 57 63 61 59 61 59 62 62 64 66 66 62
22 14 11 11 17 7 8 21 32 35 36 31 32 31 31 32 33 33 34 36 37 40 44 44 47 47 45 48 47 47 47 39 36 38 37 44 51 55 57 63 62 61 63
20 16 16 14 19 26 15 16 18 23 25 24 24 27 29 29 30 30 32 34 36 39 37 33 30 31 34 36 38 37 38 36 39 42 35 41 47 53 53 54 55 53 53
19 21 21 20 28 20 19 17 12 14 13 16 18 20 22 18 19 16 19 26 30 30 26 30 33 25 28 23 20 21 23 19 28 31 41 30 37 41 44 51 51 53 53
15 20 13 13 12 24 28 29 27 26 21 17 20 19 12 12 5 15 15 15 19 19 4 5 11 5 10 13 14 18 19 20 23 24 27 30 33 35 38 39 42 45 50
37 42 34 13 19 27 30 21 14 15 16 15 14 7 13 21 19 18 13 16 14 8 10 4 3 3 6 11 16 18 20 21 23 28 33 37 39 41 45 47 49 50 51
32 38 40 43 33 30 36 35 30 26 18 19 27 27 25 19 13 10 7 6 6 6 4 5 9 11 13 15 19 22 27 31 34 39 43 44 47 49 52 54 56 58 58
29 29 30 31 25 26 23 26 25 22 18 15 12 11 8 8 7 7 5 5 6 8 9 11 14 18 21 25 27 33 37 41 44 46 52 57 60 63 65 68 70 72 72
23 23 22 21 20 20 19 17 14 13 11 8 4 3 0 3 5 7 8 10 12 14 16 19 22 24 27 29 33 37 42 46 50 52 57 64 68 70 78 76 82 85 84
14 13 12 14 15 12 10 9 8 7 6 4 3 3 6 8 10 13 15 17 20 21 23 25 27 30 33 36 39 43 49 53 57 58 65 71 77 85 91 93 92 90 87
9 8 8 9 11 12 8 5 4 5 6 8 10 12 14 15 18 19 21 23 24 26 28 30 34 37 41 44 47 51 54 59 62 64 71 75 86 90 100 102 96 89 91
15 15 16 14 14 15 14 12 11 13 14 16 18 19 21 23 25 27 28 29 29 31 33 37 39 43 47 49 52 54 59 64 68 71 76 84 87 99 103 93 86 84 90
21 22 23 23 23 24 23 22 22 22 22 24 25 26 27 28 30 32 32 32 33 36 40 42 45 48 51 54 57 59 62 66 69 74 80 86 93 95 83 75 72 73 81
25 25 25 26 27 27 27 27 27 27 28 28 30 31 32 33 35 36 37 37 39 41 43 45 48 51 55 57 59 61 64 67 71 77 85 92 87 65 53 56 57 60 57
25 27 28 28 29 30 31 32 33 34 34 35 37 37 38 38 40 40 41 42 44 45 46 48 51 55 59 61 61 64 66 69 71 76 84 79 63 55 55 56 55 57 46
26 27 27 29 31 33 33 34 36 38 39 40 41 42 43 43 43 43 45 46 46 47 49 51 56 60 61 63 62 66 69 71 72 74 80 61 49 53 56 52 52 50 46
27 28 29 31 34 36 37 37 37 38 39 40 41 43 44 44 45 47 48 49 50 52 54 55 57 61 61 61 62 65 69 73 75 76 71 47 44 49 54 52 50 48 44
33 35 37 37 37 38 40 42 43 43 44 45 46 47 48 49 50 51 52 53 53 55 60 64 67 66 60 58 61 65 68 72 74 69 50 45 49 52 53 50 49 46 40
36 37 40 41 42 43 45 47 46 47 49 51 52 52 52 52 53 54 55 57 63 65 59 58 57 57 55 57 59 63 66 69 68 54 42 43 49 50 50 48 49 41 36
38 40 41 43 46 49 51 53 56 59 59 61 61 58 57 58 58 57 59 61 61 59 59 57 57 56 54 55 58 62 65 66 63 46 40 47 50 46 46 49 48 32 28
Wind_Direction
268 264 260 254 251 250 250 248 246 247 248 246 245 245 244 244 245 244 244 246 249 252 252 250 250 248 249 254 257 262 252 247 256 254 263 258 257 269 251 256 257 258 259
266 268 265 259 252 247 247 247 246 244 245 247 245 244 245 244 243 246 248 248 248 248 251 250 251 250 250 252 254 257 258 253 254 258 258 262 259 271 264 267 250 255 251
271 272 271 265 255 247 242 240 241 242 241 242 242 243 244 247 245 244 247 249 250 249 249 249 249 250 251 253 255 255 259 258 255 255 256 259 267 266 267 270 259 261 255
280 284 288 275 254 245 239 236 237 237 238 239 240 242 244 246 247 245 244 246 248 249 249 249 251 252 256 255 254 254 259 261 259 255 256 253 258 260 263 268 270 273 273
326 320 307 313 262 240 230 229 227 232 236 239 241 243 244 247 249 246 243 244 247 248 249 250 251 252 253 254 257 259 258 260 263 261 257 259 255 256 261 260 271 271 280
328 318 341 338 333 226 224 223 216 217 227 236 241 244 247 247 248 245 242 244 246 248 249 250 251 254 254 254 254 259 258 261 263 262 264 266 265 253 260 263 272 277 274
322 324 332 3 6 310 206 217 208 207 221 233 240 244 245 244 245 244 245 247 249 249 250 251 253 255 257 258 257 259 261 262 260 265 266 265 262 249 258 265 269 275 271
343 340 346 34 37 23 123 185 193 203 217 232 237 240 235 237 243 243 248 249 247 247 249 253 256 256 260 260 259 261 259 261 266 274 266 271 259 257 269 270 269 269 274
50 44 48 51 73 66 99 144 178 203 220 224 220 210 213 220 226 238 247 245 245 248 253 253 248 253 255 260 251 252 255 256 266 273 270 268 266 270 278 276 274 273 277
48 50 47 62 86 61 74 109 147 178 194 210 214 212 216 222 229 248 257 258 251 248 245 245 247 252 251 295 269 292 347 318 283 284 272 291 287 281 265 263 266 269 273
53 53 47 75 72 83 82 90 106 106 116 109 129 121 144 150 235 227 250 251 243 228 212 55 53 60 17 358 354 346 337 329 328 328 323 321 318 313 310 308 307 300 282
77 73 81 118 94 86 82 96 89 113 123 87 115 159 156 129 129 129 123 117 121 112 94 182 232 243 282 303 304 306 305 305 312 314 314 306 298 296 293 291 291 291 292
70 69 68 74 107 78 77 80 78 88 137 131 112 112 124 127 136 147 147 121 155 189 219 249 275 283 288 293 299 305 307 302 303 305 308 307 302 297 292 287 283 280 277
75 71 76 73 76 79 76 84 81 89 102 107 122 144 144 149 165 175 190 201 226 241 255 272 285 293 297 302 307 312 311 313 311 305 307 308 305 302 298 293 289 285 279
62 66 67 71 78 78 68 61 72 82 89 95 93 99 149 251 250 267 267 262 270 276 279 285 288 292 296 300 302 305 308 305 302 302 303 304 300 297 297 293 289 284 280
63 63 57 50 44 41 44 44 43 40 35 22 349 303 288 283 281 278 282 283 281 283 285 288 294 295 297 298 301 302 302 303 306 303 303 304 301 303 299 293 286 279 271
359 5 360 357 358 356 348 346 327 313 303 302 301 303 300 294 290 289 289 287 286 283 286 290 294 298 300 302 303 304 303 305 304 303 305 303 304 303 300 293 283 268 257
319 320 320 317 314 318 316 298 287 293 286 296 293 291 292 298 299 299 297 296 296 296 298 298 298 298 299 300 301 304 304 305 306 306 305 305 305 306 300 290 283 272 257
305 306 309 308 306 306 305 298 293 291 292 292 292 293 292 292 292 292 293 294 295 296 295 295 296 298 301 301 300 300 302 303 305 309 307 309 310 307 299 293 285 276 261
303 304 306 307 306 303 301 298 295 291 288 288 289 289 288 288 290 293 295 295 294 295 295 296 299 301 301 301 301 301 304 306 309 310 314 314 313 302 301 306 302 295 275
304 302 302 302 302 302 300 296 292 289 288 287 288 287 288 288 289 291 292 293 296 296 297 297 298 303 306 304 301 302 306 309 311 314 317 316 305 299 304 311 311 312 291
303 303 303 303 302 302 302 299 294 291 289 287 287 287 288 288 289 290 292 294 296 296 296 298 299 302 304 303 303 306 310 312 314 317 319 312 298 301 305 310 319 310 307
305 305 305 304 301 298 296 296 296 293 291 289 289 288 287 288 289 291 294 296 296 297 299 299 298 300 302 304 305 307 311 314 319 322 321 305 306 311 306 305 311 313 313
298 298 299 301 301 300 299 294 292 290 289 289 289 289 289 290 291 293 294 295 296 296 295 295 295 297 299 304 307 309 312 317 323 323 310 299 301 306 308 307 307 310 308
292 293 294 297 298 297 297 297 297 297 292 288 286 284 285 287 289 291 292 291 293 295 297 297 297 296 299 305 307 309 315 320 323 314 299 298 305 307 305 307 306 303 297
297 298 299 299 299 300 299 297 298 297 295 296 295 293 290 289 288 289 292 294 292 295 296 296 296 298 300 304 307 312 318 322 322 306 299 297 304 310 312 308 308 288 275